Ketchikan, AK

2:17 AM AKST on January 21, 2019 (GMT -0900)
Ketchikan International

Weather History for PAKT - November, 2018

Change the Weather History Date:

Friday, November 30, 2018

  Actual Average Record
Temperature  
Mean Temperature 40 °F -  
Max Temperature 43 °F 43 °F 52 °F (1969)
Min Temperature 36 °F 32 °F 12 °F (2005)
Degree Days  
Heating Degree Days 26    
Moisture  
Dew Point 38 °F    
Average Humidity 88    
Maximum Humidity 96    
Minimum Humidity 79    
Precipitation  
Precipitation 0.00 in - - ()
Sea Level Pressure  
Sea Level Pressure 29.80 in    
Wind  
Wind Speed 4 mph (NW)    
Max Wind Speed 10 mph    
Max Gust Speed 17 mph    
Visibility 9 miles    
Events Rain    
Averages and records for this station are not official NWS values.
T = Trace of Precipitation, MM = Missing Value Source: NWS Daily Summary

Daily Weather History Graph

Daily Weather History Graph

Search for Another Location

Airport or City:

Astronomy

Nov. 30, 2018 Rise Set
Actual Time 7:48 AM AKST 3:22 PM AKST
Civil Twilight 7:04 AM AKST 4:06 PM AKST
Nautical Twilight 6:17 AM AKST 4:53 PM AKST
Astronomical Twilight 5:33 AM AKST 5:37 PM AKST
Moon No Moon Rise 1:22 PM AKST (11/30)
Length of Visible Light 9h 01m
Length of Day
7h 33m
Last Quarter, 40% of the Moon is Illuminated
Nov 30
Last Quarter
Dec 6
New
Dec 15
First Quarter
Dec 22
Full
Dec 29
Last Quarter

Hourly Weather History & Observations

Time (AKST) Temp. Windchill Dew Point Humidity Pressure Visibility Wind Dir Wind Speed Gust Speed Precip Events Conditions
12:01 AM 43.0 °F 41.3 °F 41.0 °F 93% 29.70 in 0.8 mi SSE 3.5 mph - N/A   Overcast
12:13 AM 43.0 °F - 41.0 °F 93% 29.70 in 1.0 mi Calm Calm - N/A   Overcast
12:25 AM 42.1 °F - 41.0 °F 96% 29.70 in 2.0 mi Calm Calm - N/A   Overcast
12:53 AM 43.0 °F - 41.0 °F 93% 29.70 in 7.0 mi Calm Calm - N/A   Overcast
1:27 AM 43.0 °F - 41.0 °F 93% 29.70 in 10.0 mi Calm Calm - N/A   Overcast
1:51 AM 42.8 °F - 41.0 °F 93% 29.70 in 10.0 mi Calm Calm - N/A   Overcast
1:53 AM 42.1 °F - 41.0 °F 96% 29.71 in 10.0 mi Calm Calm - N/A   Overcast
2:06 AM 42.1 °F 40.2 °F 39.9 °F 92% 29.71 in 6.0 mi NW 3.5 mph - N/A   Overcast
2:22 AM 42.1 °F 40.2 °F 39.9 °F 92% 29.71 in 10.0 mi NW 3.5 mph - N/A   Overcast
2:53 AM 42.1 °F 39.2 °F 41.0 °F 96% 29.71 in 10.0 mi NW 4.6 mph - N/A   Overcast
3:22 AM 42.1 °F 39.2 °F 39.9 °F 92% 29.71 in 10.0 mi NW 4.6 mph - N/A   Overcast
3:53 AM 42.1 °F 38.4 °F 39.9 °F 92% 29.72 in 7.0 mi NNW 5.8 mph - N/A   Overcast
4:53 AM 42.1 °F 39.2 °F 39.9 °F 92% 29.72 in 10.0 mi NW 4.6 mph - N/A   Overcast
5:53 AM 42.1 °F 38.4 °F 39.0 °F 89% 29.73 in 10.0 mi NW 5.8 mph - N/A   Overcast
6:53 AM 42.8 °F 39.3 °F 39.2 °F 87% 29.75 in 10.0 mi NW 5.8 mph - N/A   Overcast
7:53 AM 42.8 °F 38.0 °F 39.2 °F 87% 29.77 in 10.0 mi NW 8.1 mph - N/A   Mostly Cloudy
8:51 AM 42.8 °F 38.6 °F 39.2 °F 87% 29.78 in 10.0 mi NW 6.9 mph - N/A   Mostly Cloudy
8:53 AM 42.8 °F 38.6 °F 39.2 °F 87% 29.78 in 10.0 mi NW 6.9 mph - N/A   Mostly Cloudy
9:53 AM 42.8 °F 38.6 °F 39.2 °F 87% 29.81 in 10.0 mi WNW 6.9 mph - N/A   Mostly Cloudy
10:53 AM 42.8 °F 37.5 °F 39.2 °F 87% 29.81 in 10.0 mi NW 9.2 mph - N/A   Scattered Clouds
11:51 AM 42.8 °F 37.0 °F 39.2 °F 87% 29.82 in 10.0 mi NW 10.4 mph - N/A   Mostly Cloudy
11:53 AM 42.8 °F 38.6 °F 39.2 °F 87% 29.82 in 10.0 mi NW 6.9 mph 17.3 mph N/A   Mostly Cloudy
1:53 PM 42.8 °F 38.6 °F 37.4 °F 81% 29.84 in 10.0 mi NW 6.9 mph - N/A   Mostly Cloudy
2:53 PM 41.0 °F 36.4 °F 39.2 °F 93% 29.86 in 10.0 mi NW 6.9 mph - N/A Rain Light Rain
3:53 PM 41.0 °F 37.1 °F 37.0 °F 86% 29.88 in 10.0 mi WNW 5.8 mph - 0.00 in   Overcast
4:53 PM 39.0 °F 34.8 °F 33.1 °F 79% 29.89 in 10.0 mi WNW 5.8 mph - N/A   Overcast
5:53 PM 37.0 °F 33.3 °F 32.0 °F 82% 29.91 in 10.0 mi WNW 4.6 mph - N/A   Clear
6:53 PM 36.0 °F 30.3 °F 32.0 °F 86% 29.91 in 10.0 mi NW 6.9 mph - N/A   Clear
7:53 PM 37.0 °F 32.4 °F 33.1 °F 86% 29.93 in 10.0 mi NW 5.8 mph - N/A   Clear
8:53 PM 36.0 °F 31.1 °F 32.0 °F 86% 29.94 in 10.0 mi WNW 5.8 mph - N/A   Clear
9:53 PM 36.0 °F 29.6 °F 32.0 °F 86% 29.95 in 10.0 mi NW 8.1 mph - N/A   Clear
10:53 PM 37.0 °F 31.6 °F 32.0 °F 82% 29.97 in 10.0 mi WNW 6.9 mph - N/A   Scattered Clouds
11:51 PM 37.4 °F 31.4 °F 32.0 °F 81% 29.97 in 10.0 mi NW 8.1 mph - N/A   Mostly Cloudy
11:53 PM 37.9 °F 32.7 °F 32.0 °F 79% 29.98 in 10.0 mi NW 6.9 mph - N/A   Mostly Cloudy